Voltar ao catálogo

Zorkiy-2M VPE

AtivoMilitarSSO
NORAD 67252·PAYLOAD·🇷🇺 Russia

Lançado Dec 28, 2025 de Vostochny Cosmodrome

Loading…

Próximas Passagens (próximas 24 horas)

TLE

AtualizadoSource: Space-Track

Época: Sep 14, 2026, 10:21 UTC

1 67252U 25313E   26257.43154345  .00005337  00000-0  21444-3 0  9993
2 67252  97.3875 331.2690 0010564  38.2831 321.9155 15.25316968 39574

Acompanhe Zorkiy-2M VPE em tempo real com AllMySat

Download on the App Store